Regional Weather Roundup
Issued by NWS

Home | Current Version | Previous Version | Graphics & Text | Print | Product List | Glossary Off
Versions: 1 2 3 4 5 6 7 8 9 10 11 12 13 14 15 16 17 18 19 20 21 22 23 24 25 26 27 28 29 30 31 32 33 34 35 36 37 38 39 40 41 42 43 44 45 46 47 48 49 50

000
ASUS43 KMKX 270710
RWRWI

WISCONSIN REGIONAL WEATHER ROUNDUP
NATIONAL WEATHER SERVICE MILWAUKEE/SULLIVAN WI
100 AM CST FRI FEB 27 2015

NOTE: "FAIR" INDICATES FEW OR NO CLOUDS BELOW 12,000 FEET WITH NO
SIGNIFICANT WEATHER AND/OR OBSTRUCTIONS TO VISIBILITY.

WIZ001-002-006>008-014>016-023>028-270800-
NORTHWEST WISCONSIN

CITY           SKY/WX    TMP DP  RH WIND       PRES   REMARKS
SUPERIOR ARPT  CLEAR     -1 -12  59 W6        30.46S WCI -13
ASHLAND        CLEAR     -5 -13  68 SW6       30.41S WCI -18
HAYWARD        CLEAR    -15 -21  74 CALM      30.39S
SIREN          CLEAR     -9 -15  75 CALM      30.46R
CUMBERLAND     FAIR      -4 -13  65 W7        30.41S WCI -18
RICE LAKE      FAIR      -5 -13  68 W3        30.44S
CHETEK         FAIR      -5 -12  72 MISG      30.43S
LADYSMITH      CLEAR     -8 -12  81 W3        30.41S
EAU CLAIRE     CLEAR     -3 -12  65 W3        30.45S
MENOMONIE      CLEAR     -1 -10  65 W3        30.46S
NEW RICHMOND   CLEAR     -5 -12  71 CALM      30.47R
OSCEOLA        CLEAR     -2 -10  68 W3        30.51R
$$

WIZ003>005-009-010-017-018-270800-
NORTH CENTRAL WISCONSIN

CITY           SKY/WX    TMP DP  RH WIND       PRES   REMARKS
MANITOWISH WTR CLEAR    -19 -26  72 CALM      30.30S
ARBOR VITAE    CLEAR     -9 -15  74 CALM      30.30S
WOODRUFF       CLEAR     -9 -15  74 CALM      30.30S
RHINELANDER    CLEAR    -11 -18  71 W7        30.31R WCI -26
EAGLE RIVER    CLEAR    -18 -24  71 CALM      30.29R
LAND O LAKES   CLEAR    -24 -31  71 CALM      30.28F
PHILLIPS       CLEAR    -16 -21  78 CALM      30.34R
TOMAHAWK       FAIR     -18 -24  72 CALM      30.34R
MEDFORD        CLEAR     -7 -15  69 W5        30.35R WCI -19
MERRILL        CLEAR    -14 -20  75 CALM      30.36R
$$

WIZ029-030-035-036-043>047-270800-
CENTRAL WISCONSIN

CITY           SKY/WX    TMP DP  RH WIND       PRES   REMARKS
WAUSAU         CLEAR     -3 -12  65 NW5       30.37R WCI -13
MOSINEE        CLEAR     -2  -9  71 W6        30.38S WCI -14
MARSHFIELD     CLEAR     -3 -13  62 W7        30.39R WCI -16
STEVENS POINT  CLEAR     -3 -12  66 CALM      30.41R
WAUPACA        CLEAR      2  -9  60 W3        30.43R
WAUTOMA        FAIR      -2 -11  65 NW6       30.44R WCI -14
WISC RAPIDS    CLEAR     -3 -13  62 NW3       30.43R
CAMP DOUGLAS   CLEAR     -6 -10  79 W5        30.44R WCI -16
$$

WIZ011>013-019>022-031-037>040-048>050-270800-
NORTHEAST WISCONSIN

CITY           SKY/WX    TMP DP  RH WIND       PRES   REMARKS
ANTIGO         CLEAR     -7 -14  72 W7        30.32S WCI -21
SHAWANO        CLEAR      0 -10  63 W3        30.41S
OCONTO         CLEAR    -10 -14  82 CALM      30.42R
STURGEON BAY   CLEAR     -2  -9  71 CALM      30.41S
GREEN BAY      CLEAR      0  -8  69 W8        30.42R WCI -14
MANITOWOC      CLEAR      3  -6  66 NW8       30.42R WCI -10
APPLETON       CLEAR      0  -9  65 NW9       30.41R WCI -16
CLINTONVILLE   CLEAR      1  -8  66 CALM      30.41R
OSHKOSH        CLEAR      1  -9  62 W6        30.41R WCI -10
$$

WIZ032>034-041-042-053>061-270800-
SOUTHWEST WISCONSIN

CITY           SKY/WX    TMP DP  RH WIND       PRES   REMARKS
LA CROSSE      CLEAR     -5 -10  79 CALM      30.50R
SPARTA         CLEAR    -14 -19  78 CALM      30.47S
VIROQUA        CLEAR     -3  -9  75 W6        30.42R WCI -15
BOSCOBEL       CLEAR     -9 -15  75 CALM      30.51R
PRAIRIE DU CHI CLEAR     -7 -13  77 W3        30.52R
PLATTEVILLE    FAIR      -8 -13  77 W6        30.45S WCI -21
$$

WIZ056-057-062-063-064-067-068-270800-
SOUTH CENTRAL WISCONSIN

CITY           SKY/WX    TMP DP  RH WIND       PRES   REMARKS
REEDSBURG      CLEAR     -1  -9  70 CALM      30.44S
BARABOO/DELLS  CLEAR     -2 -11  66 CALM      30.43S
LONE ROCK      CLEAR     -7 -12  79 W3        30.48R
MINERAL POINT  CLEAR     -2  -9  71 W6        30.43R WCI -14
MADISON        CLEAR     -2  -9  72 W3        30.44R
MIDDLETON      CLEAR     -2 -10  66 W3        30.44R
WATERTOWN      CLEAR     -5 -11  76 CALM      30.42R
MONROE         FAIR       1  -6  71 NW9       30.42S WCI -14
JANESVILLE     HAZE      -4  -9  77 CALM      30.44S VSB 1
$$

WIZ051-052-058>065-066-070>072-270800-
SOUTHEAST WISCONSIN

CITY           SKY/WX    TMP DP  RH WIND       PRES   REMARKS
MILWAUKEE      CLEAR      5  -6  60 NW7       30.42S WCI  -7
WAUKESHA       CLEAR      0  -8  71 W8        30.42S WCI -15
MILWAUKEE/TIMM FAIR       1  -8  66 W3        30.43S
RACINE         CLEAR      1  -8  66 W6        30.44S WCI -10
BURLINGTON     CLEAR    -12 -16  82 CALM      30.43R
KENOSHA        CLEAR     -5 -10  79 W5        30.43R WCI -16
FOND DU LAC    FAIR       2  -9  60 CALM      30.42R
SHEBOYGAN      CLEAR      2  -7  66 W9        30.41R WCI -13
WEST BEND      PTCLDY     3  -8  60 W6        30.40S WCI  -8
JUNEAU         CLEAR      1  -8  65 NW3       30.43R
$$

LSZ147-162-270800-
LAKE SUPERIOR

STATION/POSITION TIME  TEMP    WIND        PRES    WAVE
                       AIR SEA DIR/SP/G            HT/PER
                 (UTC) (F)     (DEG/KT/KT) (MB)    (FT/S)
DEVILS ISLAND    0700    6     310/ 10/ 11 1031.3F
PORT WING        0600    6     280/ 10/ 12 1030.5S
SAXON HARBOR     0600   -7     200/  4/  6 1029.8R
$$

LMZ867-665-643>646-270800-
LAKE MICHIGAN

STATION/POSITION TIME  TEMP    WIND        PRES    WAVE
                       AIR SEA DIR/SP/G            HT/PER
                 (UTC) (F)     (DEG/KT/KT) (MB)    (FT/S)
NORTHPORT PIER   0600    0     290/  1/  3 1029.1S
SISTER BAY       0643   -3        CALM       N/A
KEWAUNEE LAKESHO 0618   -1     300/  6/  7 1028.4R
SHEBOYGAN LAKESH 0700    5     280/ 12/ 14 1031.8R
PORT WASHINGTON  0640    5     290/  6/  8 1030.8S
MILWAUKEE LAKESH 0600    8     310/  7/ 10   N/A
KENOSHA   LAKESH 0700    3     280/  8/ 11 1030.5R
$$

TC  - TEMPERATURE IN CELSIUS
VSB - VISIBILITY IN STATUTE MILES
WCI - WIND CHILL INDEX
HX  - HEAT INDEX



USA.gov is the U.S. government's official web portal to all federal, state and local government web resources and services.